Regional Weather Roundup
Issued by NWS

Home | Current Version | Previous Version | Graphics & Text | Print | Product List | Glossary On
Versions: 1 2 3 4 5 6 7 8 9 10 11 12 13 14 15 16 17 18 19 20 21 22 23 24 25 26 27 28 29 30 31 32 33 34 35 36 37 38 39 40 41 42 43 44 45 46 47 48 49 50
000
ASUS43 KTOP 021259
RWRKS

WEATHER ROUNDUP FOR KANSAS
NATIONAL WEATHER SERVICE GOODLAND KS
800 AM CDT MON MAY 02 2016

NOTE:  "FAIR" INDICATES FEW OR NO CLOUDS BELOW 12,000 FEET WITH NO
SIGNIFICANT WEATHER AND/OR OBSTRUCTIONS TO VISIBILITY.

KSZ001>006-013>018-027>032-041>047-021400-
NORTHWEST KANSAS

CITY           SKY/WX    TMP DP  RH WIND       PRES   REMARKS
GOODLAND       SUNNY     34  29  82 W6        30.23R
HAYS           SUNNY     43  34  70 NW7       30.20S
HILL CITY      SUNNY     42  35  76 NW8       30.21S
RUSSELL        CLOUDY    45  41  86 NW8       30.18S
$$

KSZ061>065-074>080-084>089-021400-
SOUTHWEST KANSAS

CITY           SKY/WX    TMP DP  RH WIND       PRES   REMARKS
DODGE CITY     CLOUDY    41  39  93 W9        30.21R
ELKHART          N/A     36  29  76 NW9         N/A
GARDEN CITY    SUNNY     35  31  85 NW9       30.22R
GREAT BEND     CLOUDY    45  37  76 NW8       30.19S
LIBERAL        SUNNY     37  32  81 NW9       30.23S
$$

KSZ066>073-081>083-090>101-021400-
SOUTHEAST KANSAS

CITY           SKY/WX    TMP DP  RH WIND       PRES   REMARKS
CHANUTE        CLOUDY    50  44  80 NW7       30.12R
COFFEYVILLE    CLOUDY    51  45  79 NW10      30.13R
HUTCHINSON     CLOUDY    49  43  80 N12       30.17R
MEDICINE LODGE   N/A     48  42  80 N9        30.18R
NEWTON         CLOUDY    46  39  76 NW13      30.16F
PARSONS        CLOUDY    51  46  83 N8        30.13R
WICHITA INTL   PTSUNNY   49  43  80 NW8       30.15S
WICHITA JABRA  CLOUDY    47  43  86 NW10      30.15S
WINFIELD       CLOUDY    49  43  80 N13       30.16R
$$

KSZ007>012-019>026-033>040-048>060-102>105-021400-
NORTHEAST KANSAS

CITY           SKY/WX    TMP DP  RH WIND       PRES   REMARKS
CONCORDIA      CLOUDY    47  43  86 W7        30.17S
EMPORIA        CLOUDY    48  43  82 NW7       30.14R
LAWRENCE       CLOUDY    49  44  83 NW7       30.12R
MANHATTAN      CLOUDY    50  43  77 CALM      30.15R
OLATHE IND     CLOUDY    48  45  89 NW7       30.13R
OLATHE EXE     CLOUDY    48  44  86 N6        30.12R
SALINA         CLOUDY    49  44  83 NW8       30.18R
TOPEKA BILLARD CLOUDY    50  44  80 NW6       30.13R
TOPEKA FORBES  CLOUDY    50  44  80 NW7       30.13R
$$




USA.gov is the U.S. government's official web portal to all federal, state and local government web resources and services.